TIANTUO 2 (40144 NORAD) Tracking and Keplerian Element Data

This shows tracking and keplerian element data for the satellite.

Feedback or suggestion? Click here.




ElementValue
Catalog40144
NameTIANTUO 2
Epoch Orbit56643
Epoch Day286.87112472
Epoch Year2024
RAAN9.4714
Inclination97.1111
Eccentricity0.0003349
Argument of Perigee317.2327
Mean Anonmoly42.8678
Mean Motion15.75215966
Decay Rate0.00094887
L11 40144U 14053B 24286.87112472 .00094887 00000+0 62915-3 0 9991
L22 40144 97.1111 9.4714 0003349 317.2327 42.8678 15.75215966566430



Live tracking and technical data element details for TIANTUO 2 (NORAD 40144). TIANTUO 2 can be tracked NOW for your location showing map with azimuth and elevation plus other details from your city location.







IsCatalogInMostPopularTable: catalog: 40144, numindb: 778
Update: records affected: 1



GetName: 40144 TIANTUO 2

Hit Count: updated at: Mon, 11 May 2026 11:19:19 GMT